Home > Weather > Crawley > Past weeks

Flag for United Kingdom Past Weather in Crawley, England, United Kingdom — Yesterday and Last 2 Weeks

Now
55 °F

Passing clouds.


Feels Like: 54 °F
Forecast: 52 / 64 °F
Wind: 6 mph from Southwest

Location: London / Gatwick Airport

Current Time: Jun 25, 2016 at 12:59:34 AM

Latest Report: Jun 25, 2016 at 12:20 AM


Visibility: N/A

Pressure: 30.07 "Hg

Humidity: 94%

Dew Point: 54 °F

Location of CrawleyLocation

Past Weather in Crawley — Graph

°F

Crawley Temperature Yesterday

Maximum temperature yesterday: 68 °F (at 12:20 PM)
Minimum temperature yesterday: 50 °F (at 4:50 AM)
Average temperature yesterday: 60 °F

High & Low Weather Summary for the Past Weeks

 TemperatureHumidityPressure
High73 °F (Jun 11, 2:20 PM)100% (Jun 11, 8:50 PM)30.24 "Hg (Jun 11, 8:50 PM)
Low50 °F (Jun 15, 5:20 AM)47% (Jun 10, 1:50 PM)29.39 "Hg (Jun 14, 6:20 PM)
Average61 °F86%29.85 "Hg
* Reported Jun 9 11:20 PM — Jun 24 11:20 PM, Crawley, Weather by CustomWeather, © 2016

Note: Actual official high and low records may vary slightly from our data, if they occured in-between our weather recording intervals... More about our weather records

Advertising

Crawley Weather History for the Previous 24 Hours

Scroll right to see more
 ConditionsComfort  
Time TempWeatherWind HumidityBarometerVisibility
11:20 PM
Fri, Jun 24
55 °FPassing clouds.6 mph94%30.07 "HgN/A
10:50 PM57 °FClear.6 mph88%30.07 "Hg10 mi
10:20 PM57 °FPassing clouds.7 mph88%30.07 "HgN/A
9:50 PM59 °FPassing clouds.6 mph82%30.07 "HgN/A
9:20 PM59 °FScattered clouds.6 mph82%30.07 "HgN/A
8:50 PM61 °FScattered clouds.8 mph77%30.07 "HgN/A
8:20 PM63 °FPassing clouds.8 mph68%30.07 "HgN/A
7:50 PM63 °FPassing clouds.9 mph73%30.04 "HgN/A
7:20 PM64 °FScattered clouds.9 mph73%30.04 "HgN/A
6:50 PM63 °FScattered clouds.10 mph77%30.04 "HgN/A
6:20 PM64 °FScattered clouds.10 mph73%30.04 "HgN/A
5:50 PM66 °FPassing clouds.10 mph68%30.07 "HgN/A
5:20 PM66 °FScattered clouds.12 mph68%30.07 "HgN/A
4:50 PM68 °FScattered clouds.13 mph64%30.07 "HgN/A
4:20 PM68 °FScattered clouds.14 mph64%30.07 "HgN/A
3:50 PM68 °FScattered clouds.14 mph60%30.07 "HgN/A
3:20 PM68 °FScattered clouds.14 mph64%30.07 "HgN/A
2:50 PM68 °FPartly sunny.13 mph69%30.07 "HgN/A
2:20 PM66 °FPartly sunny.12 mph68%30.07 "HgN/A
1:50 PM68 °FScattered clouds.12 mph64%30.07 "HgN/A
1:20 PM66 °FScattered clouds.12 mph73%30.07 "HgN/A
12:50 PM66 °FScattered clouds.8 mph73%30.07 "HgN/A
12:20 PM68 °FScattered clouds.8 mph69%30.09 "HgN/A
11:50 AM66 °FScattered clouds.9 mph73%30.09 "HgN/A
11:20 AM66 °FScattered clouds.10 mph73%30.09 "HgN/A
10:50 AM64 °FScattered clouds.10 mph78%30.09 "HgN/A
10:20 AM64 °FScattered clouds.8 mph78%30.09 "HgN/A
9:50 AM63 °FScattered clouds.7 mph83%30.09 "HgN/A
9:20 AM63 °FScattered clouds.8 mph83%30.09 "HgN/A
8:50 AM61 °FPassing clouds.5 mph83%30.09 "HgN/A
8:20 AM59 °FPassing clouds.6 mph88%30.09 "HgN/A
7:50 AM59 °FPassing clouds.7 mph88%30.09 "HgN/A
7:20 AM57 °FPassing clouds.6 mph94%30.07 "HgN/A
6:50 AM55 °FPassing clouds.3 mph94%30.07 "HgN/A
6:20 AM54 °FPassing clouds.5 mph100%30.07 "HgN/A
5:50 AM52 °FSunny.3 mph100%30.07 "Hg10 mi
5:20 AM50 °FClear.3 mph100%30.07 "Hg10 mi
4:50 AM50 °FClear.3 mph100%30.07 "Hg10 mi
4:20 AM52 °FClear.3 mph100%30.04 "Hg10 mi
3:50 AM52 °FClear.5 mph100%30.07 "Hg5 mi
3:20 AM52 °FClear.5 mph100%30.04 "Hg10 mi
2:50 AM52 °FClear.2 mph100%30.04 "Hg10 mi
2:20 AM54 °FClear.2 mph94%30.04 "Hg10 mi
1:50 AM54 °FClear.6 mph94%30.04 "Hg10 mi
1:20 AM55 °FClear.6 mph94%30.04 "Hg10 mi
12:50 AM55 °FClear.7 mph94%30.04 "Hg10 mi
12:20 AM55 °FClear.7 mph94%30.04 "Hg10 mi
Weather by CustomWeather, © 2016

See weather overviewHow to use our weather pages